YZ-1S DEB, 43644

Orbit data source: Space-Track

YZ-1S DEB, 43644 is space debris in SSO originally from a launch on Tue, 09 Oct 2018 UTC launched from the Jiuquan Satellite Launch Center, China (JSC). Debris objects in space refer to the collection of defunct objects orbiting the Earth. Examples of debris include non-operational satellites, rocket bodies, and fragments generated from explosions, collisions, or faulty payload assembly.

Loading next visibility...
Identifier
43644, 2018-077C
Orbit
SSO
Country
Flag of CNCN / PRC
Related business
Manufacturer
CALT
Mission
Spacecraft
Bus & Motor
Unknown
Mass
~200 kg wet, ~200 kg dry
Launch date (UTC)
2018-10-09 (7 years ago)
Launch vehicle
Unknown
Launch site
Jiuquan Satellite Launch Center, China (JSC)
Object type
Payload
Rocket body
Debris
Shape & HBR
Cyl + Cone, 1.5 m
Radar Cross Section
8.247 m², Large (>1 m²)

Expand to show TLE details & history
Last TLE update: 7 hours ago

TLE from 7 hours ago
0 YZ-1S DEB
1 43644U 18077C   26035.12676659  .00003110  00000-0  50561-3 0  9997
2 43644  97.9376  80.5942 0008258 124.8237 235.3748 14.71769631391068
Epoch: 2026-02-04T03:02Z
TLE epoch observation values (Epoch: 2026-02-04T03:02:32.633Z)
Latitude
-0.00004°
Longitude
-99.33958°
Altitude
661.738 km
Speed
7.525 km/s
True Right ascension
05h 22m 22s
True Declination
0° 00' 00"
Sunlit
Object was in full shadow at epoch
Visualization orbit readout
Latitude
Unknown
Longitude
Unknown
Altitude
Unknown
Speed
Unknown
Apparent Right ascension
Unknown
Apparent Declination
Unknown
Sunlit
N/A
Visualization observer readout
Local Sidereal Time
12:04:05
Azimuth
Unknown
Elevation
Unknown
Doppler factor
Unknown
Orbital elements
Apogee altitude
658.284 km
Perigee altitude
646.672 km
Semi-major axis
7,030.615 km
Eccentricity
0.00083
Inclination
97.9376°
RAAN
80.5942°
Arg. of periapsis
124.8237°
True anomaly
235.29698°
Mean anomaly
235.3748°
Eccentric anomaly
235.33588°
Mean motion
3.68174 °/min
Orbital period
97.78 mins
BSTAR
0.00050561
Loading maneuver chart data...
Computing Atmospheric mass density...
Loading historical data...
Loading historical data...
Loading historical data...
Loading historical data...
Loading historical data...
Loading historical data...
Loading historical data...
Other satellites on launch #77 in the year 2018 (2018-10-09 UTC)

Documentation

Showing up to 5 results
|